TimeCDT,TemperatureF,Dew PointF,Humidity,Sea Level PressureIn,VisibilityMPH,Wind Direction,Wind SpeedMPH,Gust SpeedMPH,PrecipitationIn,Events,Conditions,WindDirDegrees,DateUTC
12:58 AM,71.6,60.4,68,30.01,10.0,South,9.2,-,N/A,,Clear,190,2013-04-10 05:58:00
1:58 AM,69.4,59.5,71,30.00,10.0,South,8.1,-,N/A,,Partly Cloudy,180,2013-04-10 06:58:00
2:58 AM,68.5,58.8,71,29.99,10.0,South,9.2,-,N/A,,Partly Cloudy,180,2013-04-10 07:58:00
3:58 AM,62.8,57.7,84,29.97,10.0,SSE,4.6,-,N/A,,Partly Cloudy,150,2013-04-10 08:58:00
4:18 AM,62.6,57.2,82,29.97,10.0,SSE,4.6,-,N/A,Rain,Light Rain,160,2013-04-10 09:18:00
4:43 AM,60.8,57.2,88,29.96,10.0,SE,5.8,-,N/A,,Clear,140,2013-04-10 09:43:00
4:58 AM,60.3,57.0,89,29.97,10.0,SE,6.9,-,0.00,,Clear,130,2013-04-10 09:58:00
5:18 AM,60.8,57.2,88,29.96,10.0,SE,4.6,-,N/A,Rain,Light Rain,140,2013-04-10 10:18:00
5:20 AM,60.8,57.2,88,29.96,10.0,SE,4.6,-,N/A,,Clear,140,2013-04-10 10:20:00
5:25 AM,60.8,57.2,88,29.96,10.0,SSE,3.5,-,N/A,Rain,Light Rain,160,2013-04-10 10:25:00
5:36 AM,60.8,57.2,88,29.96,10.0,SSE,4.6,-,N/A,,Partly Cloudy,160,2013-04-10 10:36:00
5:58 AM,60.8,57.2,88,29.96,10.0,South,4.6,-,0.00,,Scattered Clouds,170,2013-04-10 10:58:00
6:58 AM,61.0,57.2,87,29.99,9.0,Calm,Calm,-,N/A,,Partly Cloudy,0,2013-04-10 11:58:00
7:58 AM,64.0,59.2,84,30.01,10.0,ESE,3.5,-,N/A,,Partly Cloudy,120,2013-04-10 12:58:00
8:58 AM,68.5,57.2,67,30.02,10.0,South,6.9,-,N/A,,Partly Cloudy,180,2013-04-10 13:58:00
9:58 AM,73.0,57.7,59,30.03,10.0,South,6.9,-,N/A,,Clear,180,2013-04-10 14:58:00
10:58 AM,77.7,58.6,52,30.01,10.0,SSE,15.0,-,N/A,,Partly Cloudy,150,2013-04-10 15:58:00
11:58 AM,81.1,58.6,46,30.01,10.0,North,1.2,-,N/A,,Clear,360,2013-04-10 16:58:00
12:58 PM,83.5,58.5,42,29.99,10.0,South,12.7,-,N/A,,Clear,180,2013-04-10 17:58:00
1:58 PM,84.4,59.0,42,29.98,10.0,South,10.4,17.3,N/A,,Clear,190,2013-04-10 18:58:00
2:58 PM,84.9,59.9,43,29.95,10.0,South,12.7,17.3,N/A,,Clear,180,2013-04-10 19:58:00
3:58 PM,85.8,60.1,42,29.91,10.0,South,9.2,20.7,N/A,,Clear,170,2013-04-10 20:58:00
4:31 PM,86.0,60.8,43,29.88,10.0,South,12.7,19.6,N/A,,Partly Cloudy,190,2013-04-10 21:31:00
4:58 PM,85.5,61.0,44,29.88,10.0,South,13.8,19.6,N/A,,Partly Cloudy,180,2013-04-10 21:58:00
5:58 PM,82.8,60.8,47,29.86,10.0,SSE,12.7,-,N/A,,Partly Cloudy,160,2013-04-10 22:58:00
6:58 PM,79.7,60.8,52,29.83,10.0,SSE,10.4,-,N/A,,Scattered Clouds,160,2013-04-10 23:58:00
7:55 PM,75.2,60.8,61,29.81,10.0,SSE,9.2,-,N/A,Rain,Light Rain,160,2013-04-11 00:55:00
7:58 PM,76.1,61.2,60,29.82,10.0,SSE,10.4,-,0.00,Rain,Light Rain,160,2013-04-11 00:58:00
8:24 PM,75.2,60.8,61,29.83,10.0,South,8.1,-,N/A,,Partly Cloudy,180,2013-04-11 01:24:00
8:58 PM,76.3,61.9,61,29.83,10.0,South,8.1,-,0.00,,Clear,190,2013-04-11 01:58:00
9:58 PM,76.3,62.4,62,29.83,10.0,SSW,10.4,19.6,N/A,,Clear,200,2013-04-11 02:58:00
10:58 PM,75.2,62.2,64,29.83,10.0,South,12.7,19.6,N/A,,Clear,190,2013-04-11 03:58:00
11:58 PM,73.8,63.0,69,29.83,10.0,South,13.8,-,N/A,,Clear,190,2013-04-11 04:58:00